Flag for Liechtenstein Weather past 2 weeks in Vaduz, Liechtenstein

Now
56 °F

Refreshingly cool.


Feels Like: 55 °F
Forecast: 42 / 73 °F
Wind: 6 mph from North

Location: Vaduz

Current Time: May 27, 2015 at 1:56:22 PM

Latest Report: May 27, 2015 at 1:00 PM


Visibility: N/A

Pressure: 30.23 "Hg

Humidity: 51%

Dew point: 38 °F

Location of VaduzLocation

Historic Weather in Vaduz — Graph

°F

Vaduz temperature yesterday

Maximum temperature yesterday: 58 °F (at 4:00 PM)
Minimum temperature yesterday: 50 °F (at 11:00 PM)
Average temperature yesterday: 52 °F

Past Weeks' High & Low Weather Summary

 TemperatureHumidityPressure
High84 °F (May 12, 3:00 PM)96% (May 19, 4:00 AM)30.33 "Hg (May 19, 4:00 AM)
Low41 °F (May 21, 4:00 AM)22% (May 12, 3:00 PM)29.72 "Hg (May 18, 6:00 PM)
Average56 °F76%30.05 "Hg
* Reported May 12 12:00 Noon — May 27 12:00 Noon, Vaduz, Weather by CustomWeather, © 2015

Note: Actual official high and low records may vary slightly from our data, if they occured in-between our weather recording intervals... More about our weather records

Advertising

Vaduz weather history for previous 24 hours

 ConditionsComfort  
Time TempWeatherWind HumidityBarometerVisibility
12:00 PM
Wed, May 27
54 °FCool.7 mph59%30.24 "HgN/A
11:00 AM53 °FPartly sunny.5 mph73%30.24 "Hg4 mi
10:00 AM50 °FCool.6 mph76%30.25 "HgN/A
9:00 AM49 °FCool.3 mph80%30.26 "HgN/A
8:00 AM48 °FFog.1 mph86%30.25 "Hg4 mi
7:00 AM47 °FCool.2 mph90%30.24 "HgN/A
6:00 AM47 °FCool.2 mph92%30.24 "HgN/A
4:00 AM47 °FCool.2 mph91%30.23 "HgN/A
3:00 AM47 °FCool.5 mph91%30.22 "HgN/A
2:00 AM48 °FFog.3 mph91%30.22 "Hg6 mi
1:00 AM49 °FCool.6 mph90%30.20 "HgN/A
12:00 AM49 °FCool.3 mph82%30.19 "HgN/A
11:00 PM
Tue, May 26
50 °FCool.6 mph89%30.19 "HgN/A
10:00 PM50 °FCool.2 mph89%30.18 "HgN/A
9:00 PM50 °FCool.3 mph89%30.16 "HgN/A
8:00 PM51 °FLight rain. Overcast.1 mph89%30.14 "Hg6 mi
7:00 PM51 °FCool.7 mph87%30.11 "HgN/A
6:00 PM54 °FCool.8 mph73%30.08 "HgN/A
5:00 PM56 °FOvercast.3 mph67%30.05 "Hg7 mi
4:00 PM58 °FCool.5 mph65%30.04 "HgN/A
3:00 PM56 °FCool.5 mph66%30.06 "HgN/A
2:00 PM54 °FLight rain. Overcast.5 mph76%30.08 "Hg3 mi
1:00 PM51 °FCool.3 mph79%30.09 "HgN/A
Weather by CustomWeather, © 2015

See weather overviewHow to use our weather pages